WIF873 ENTC-ENEV

Flight info

Callsign WIF873
Flight time 0h 48m
Altitude 16000
Route ROSKO DCT ELDUR
Aircraft E190/M-SDE3GILORVW/S

Departure

Time 2026-05-04 19:10
Airport Tromsø Airport (ENTC)

Arrival

Time 2026-05-04 19:58
Airport Harstad/Narvik Airport (ENEV)
Time Latitude Longitude Altitude Speed Heading
2026-05-04 18:36 69.68084 18.91012 33 ft 0 kts 282°
2026-05-04 19:01 69.68084 18.91020 33 ft 3 kts 282°
2026-05-04 19:01 69.68078 18.91095 33 ft 4 kts 279°
2026-05-04 19:02 69.68075 18.91171 33 ft 4 kts 274°
2026-05-04 19:02 69.68074 18.91248 33 ft 4 kts 263°
2026-05-04 19:02 69.68080 18.91317 33 ft 4 kts 222°
2026-05-04 19:02 69.68091 18.91336 33 ft 1 kts 190°
2026-05-04 19:03 69.68092 18.91337 33 ft 0 kts 190°
2026-05-04 19:07 69.68092 18.91336 33 ft 1 kts 190°
2026-05-04 19:07 69.68051 18.91315 33 ft 11 kts 190°
2026-05-04 19:07 69.67948 18.91251 33 ft 17 kts 193°
2026-05-04 19:07 69.67830 18.91168 33 ft 18 kts 193°
2026-05-04 19:08 69.67712 18.91087 33 ft 17 kts 193°
2026-05-04 19:08 69.67634 18.91138 34 ft 7 kts 109°
2026-05-04 19:08 69.67625 18.91255 36 ft 6 kts 103°
2026-05-04 19:08 69.67617 18.91353 39 ft 5 kts 103°
2026-05-04 19:09 69.67648 18.91435 39 ft 0 kts 12°
2026-05-04 19:09 69.67661 18.91443 39 ft 6 kts 12°
2026-05-04 19:09 69.67834 18.91557 39 ft 58 kts 12°
2026-05-04 19:09 69.68463 18.91983 28 ft 125 kts 14°
2026-05-04 19:10 69.69465 18.92532 307 ft 155 kts 12°
2026-05-04 19:10 69.70554 18.93105 1069 ft 164 kts 11°
2026-05-04 19:10 69.71681 18.93623 1740 ft 166 kts 10°
2026-05-04 19:10 69.72831 18.94145 2271 ft 169 kts 11°
2026-05-04 19:11 69.74002 18.94647 2787 ft 173 kts
2026-05-04 19:11 69.75216 18.94569 3154 ft 173 kts 352°
2026-05-04 19:11 69.76300 18.93375 3091 ft 162 kts 329°
2026-05-04 19:11 69.77147 18.91199 2710 ft 169 kts 310°
2026-05-04 19:12 69.77753 18.88229 2326 ft 172 kts 291°
2026-05-04 19:12 69.77991 18.81170 2362 ft 212 kts 261°
2026-05-04 19:12 69.77422 18.76613 2651 ft 266 kts 237°
2026-05-04 19:13 69.77043 18.75130 2912 ft 277 kts 226°
2026-05-04 19:13 69.74367 18.70642 3171 ft 261 kts 200°
2026-05-04 19:13 69.72660 18.68845 2844 ft 257 kts 197°
2026-05-04 19:13 69.71078 18.67291 3231 ft 223 kts 202°
2026-05-04 19:14 69.69789 18.65037 3598 ft 215 kts 216°
2026-05-04 19:14 69.68643 18.62509 3774 ft 195 kts 216°
2026-05-04 19:14 69.67588 18.60262 3647 ft 191 kts 215°
2026-05-04 19:14 69.66490 18.57982 4125 ft 192 kts 214°
2026-05-04 19:15 69.65408 18.55800 4737 ft 192 kts 215°
2026-05-04 19:15 69.64292 18.53468 5118 ft 203 kts 215°
2026-05-04 19:15 69.63135 18.51098 5536 ft 209 kts 214°
2026-05-04 19:15 69.61965 18.48774 6266 ft 194 kts 214°
2026-05-04 19:16 69.60903 18.46643 6974 ft 184 kts 214°
2026-05-04 19:17 69.68084 18.91012 33 ft 0 kts 282°
2026-05-04 19:27 69.68081 18.91050 33 ft 4 kts 281°
2026-05-04 19:27 69.68077 18.91126 33 ft 4 kts 277°
2026-05-04 19:27 69.68074 18.91203 33 ft 4 kts 271°
2026-05-04 19:27 69.68075 18.91279 33 ft 4 kts 252°
2026-05-04 19:28 69.68086 18.91333 33 ft 2 kts 193°
2026-05-04 19:28 69.68092 18.91337 33 ft 0 kts 190°
2026-05-04 19:31 69.68079 18.91330 33 ft 6 kts 191°
2026-05-04 19:31 69.68009 18.91286 33 ft 15 kts 193°
2026-05-04 19:32 69.67900 18.91216 33 ft 16 kts 193°
2026-05-04 19:32 69.67799 18.91149 33 ft 15 kts 193°
2026-05-04 19:32 69.67693 18.91074 33 ft 15 kts 194°
2026-05-04 19:32 69.67630 18.91175 35 ft 11 kts 104°
2026-05-04 19:33 69.67616 18.91342 39 ft 6 kts 104°
2026-05-04 19:33 69.67643 18.91431 39 ft 9 kts 13°
2026-05-04 19:33 69.67654 18.91438 39 ft 2 kts 12°
2026-05-04 19:33 69.67879 18.91588 38 ft 69 kts 13°
2026-05-04 19:34 69.68573 18.92059 25 ft 134 kts 14°
2026-05-04 19:34 69.69611 18.92617 406 ft 159 kts 12°
2026-05-04 19:34 69.70724 18.93228 1138 ft 169 kts 13°
2026-05-04 19:34 69.71877 18.94042 1809 ft 166 kts 17°
2026-05-04 19:35 69.72936 18.94853 2613 ft 151 kts 17°
2026-05-04 19:35 69.73925 18.95564 3160 ft 144 kts 16°
2026-05-04 19:35 69.74892 18.96243 3560 ft 142 kts 16°
2026-05-04 19:35 69.75847 18.96886 3940 ft 139 kts 13°
2026-05-04 19:36 69.76811 18.97064 4246 ft 140 kts 355°
2026-05-04 19:36 69.77752 18.96276 4461 ft 145 kts 335°
2026-05-04 19:36 69.78664 18.94419 4354 ft 178 kts 313°
2026-05-04 19:36 69.79309 18.91147 4528 ft 199 kts 287°
2026-05-04 19:37 69.79640 18.87136 4894 ft 211 kts 283°
2026-05-04 19:37 69.79935 18.82839 5288 ft 224 kts 282°
2026-05-04 19:37 69.80025 18.78202 5627 ft 240 kts 262°
2026-05-04 19:37 69.79438 18.73587 5963 ft 254 kts 235°
2026-05-04 19:38 69.78133 18.70002 6273 ft 266 kts 215°
2026-05-04 19:38 69.76561 18.66978 6652 ft 276 kts 212°
2026-05-04 19:38 69.74940 18.63936 7167 ft 279 kts 213°
2026-05-04 19:38 69.73322 18.60795 7733 ft 281 kts 214°
2026-05-04 19:39 69.71702 18.57602 8275 ft 283 kts 214°
2026-05-04 19:39 69.70066 18.54384 8842 ft 285 kts 214°
2026-05-04 19:39 69.68420 18.51149 9455 ft 287 kts 214°
2026-05-04 19:39 69.66761 18.47896 10023 ft 289 kts 214°
2026-05-04 19:40 69.65090 18.44645 10607 ft 291 kts 214°
2026-05-04 19:40 69.63407 18.41376 11222 ft 293 kts 213°
2026-05-04 19:40 69.61713 18.38086 11842 ft 295 kts 213°
2026-05-04 19:40 69.60008 18.34785 12494 ft 297 kts 213°
2026-05-04 19:41 69.58291 18.31482 13159 ft 298 kts 213°
2026-05-04 19:41 69.56557 18.28170 13779 ft 300 kts 213°
2026-05-04 19:41 69.54817 18.24862 14379 ft 302 kts 213°
2026-05-04 19:41 69.53059 18.21541 14966 ft 304 kts 212°
2026-05-04 19:42 69.51289 18.18237 15544 ft 300 kts 212°
2026-05-04 19:42 69.49554 18.15031 15630 ft 305 kts 211°
2026-05-04 19:42 69.47721 18.11802 15619 ft 306 kts 211°
2026-05-04 19:42 69.45927 18.08671 15613 ft 306 kts 211°
2026-05-04 19:43 69.44195 18.05144 15590 ft 307 kts 219°
2026-05-04 19:43 69.42570 18.01171 15482 ft 308 kts 220°
2026-05-04 19:43 69.40953 17.97224 15495 ft 306 kts 219°
2026-05-04 19:43 69.39319 17.93352 15505 ft 306 kts 219°
2026-05-04 19:44 69.37671 17.89526 15509 ft 306 kts 218°
2026-05-04 19:44 69.35994 17.85673 15522 ft 307 kts 218°
2026-05-04 19:44 69.34335 17.81876 15517 ft 307 kts 218°
2026-05-04 19:44 69.32672 17.78082 15522 ft 306 kts 218°
2026-05-04 19:45 69.31013 17.74305 15520 ft 306 kts 218°
2026-05-04 19:45 69.29351 17.70529 15516 ft 306 kts 218°
2026-05-04 19:45 69.27712 17.66812 15526 ft 306 kts 218°
2026-05-04 19:45 69.26050 17.63051 15519 ft 307 kts 218°
2026-05-04 19:46 69.24385 17.59290 15515 ft 307 kts 218°
2026-05-04 19:46 69.22707 17.55502 15236 ft 309 kts 218°
2026-05-04 19:46 69.21044 17.51745 15079 ft 305 kts 218°
2026-05-04 19:46 69.19386 17.48010 14810 ft 306 kts 218°
2026-05-04 19:47 69.17719 17.44252 14372 ft 307 kts 218°
2026-05-04 19:47 69.16062 17.40517 13963 ft 304 kts 218°
2026-05-04 19:47 69.14421 17.36827 13565 ft 301 kts 218°
2026-05-04 19:47 69.12797 17.33179 13169 ft 298 kts 218°
2026-05-04 19:48 69.11192 17.29579 12811 ft 293 kts 218°
2026-05-04 19:48 69.09602 17.26021 12422 ft 292 kts 218°
2026-05-04 19:48 69.08013 17.22471 12037 ft 292 kts 218°
2026-05-04 19:48 69.06426 17.18930 11654 ft 292 kts 218°
2026-05-04 19:49 69.04840 17.15398 11264 ft 291 kts 218°
2026-05-04 19:49 69.03258 17.11878 10872 ft 290 kts 218°
2026-05-04 19:49 69.01683 17.08378 10462 ft 289 kts 219°
2026-05-04 19:49 69.00117 17.04903 10086 ft 287 kts 219°
2026-05-04 19:50 68.98562 17.01456 9698 ft 285 kts 219°
2026-05-04 19:50 68.97019 16.98044 9480 ft 277 kts 219°
2026-05-04 19:50 68.95522 16.94761 9434 ft 276 kts 218°
2026-05-04 19:50 68.93957 16.91322 8569 ft 294 kts 219°
2026-05-04 19:51 68.92413 16.87898 8627 ft 276 kts 219°
2026-05-04 19:51 68.90889 16.84577 8221 ft 281 kts 219°
2026-05-04 19:51 68.89379 16.81261 7840 ft 279 kts 219°
2026-05-04 19:51 68.87923 16.77732 7470 ft 277 kts 223°
2026-05-04 19:52 68.86524 16.74104 7095 ft 274 kts 223°
2026-05-04 19:52 68.85130 16.70546 6746 ft 271 kts 221°
2026-05-04 19:52 68.83491 16.68033 6373 ft 270 kts 200°
2026-05-04 19:52 68.81732 16.66269 6021 ft 268 kts 204°
2026-05-04 19:53 68.81563 16.66060 6000 ft 268 kts 205°
2026-05-04 19:53 68.79830 16.63895 5617 ft 268 kts 193°
2026-05-04 19:53 68.77985 16.63992 5271 ft 266 kts 170°
2026-05-04 19:53 68.76164 16.64837 4994 ft 262 kts 176°
2026-05-04 19:54 68.74371 16.64943 5064 ft 259 kts 181°
2026-05-04 19:54 68.72551 16.64991 5079 ft 264 kts 178°
2026-05-04 19:54 68.70710 16.65339 5099 ft 266 kts 176°
2026-05-04 19:54 68.68857 16.65571 4999 ft 270 kts 179°
2026-05-04 19:55 68.66962 16.65720 4493 ft 271 kts 178°
2026-05-04 19:55 68.65111 16.65949 3991 ft 262 kts 178°
2026-05-04 19:55 68.63313 16.66163 3487 ft 256 kts 179°
2026-05-04 19:55 68.61582 16.66366 3064 ft 237 kts 178°
2026-05-04 19:56 68.59997 16.66550 2635 ft 219 kts 179°
2026-05-04 19:56 68.58528 16.66724 2254 ft 205 kts 179°
2026-05-04 19:56 68.57140 16.66883 1899 ft 194 kts 179°
2026-05-04 19:56 68.55827 16.67045 1534 ft 182 kts 178°
2026-05-04 19:57 68.54614 16.67206 1201 ft 167 kts 179°
2026-05-04 19:57 68.53497 16.67306 909 ft 156 kts 180°
2026-05-04 19:57 68.52441 16.67426 651 ft 149 kts 179°
2026-05-04 19:57 68.51414 16.67568 363 ft 146 kts 179°
2026-05-04 19:58 68.50417 16.67680 138 ft 142 kts 179°
2026-05-04 19:58 68.49492 16.67775 94 ft 114 kts 177°
2026-05-04 19:58 68.48912 16.67842 93 ft 45 kts 174°
2026-05-04 19:58 68.48669 16.67866 92 ft 25 kts 176°
2026-05-04 19:59 68.48512 16.67887 94 ft 16 kts 176°
2026-05-04 19:59 68.48442 16.68102 95 ft 11 kts 88°
2026-05-04 19:59 68.48447 16.68225 98 ft 4 kts 69°
2026-05-04 19:59 68.48464 16.68253 100 ft 4 kts 20°
2026-05-04 20:00 68.48534 16.68250 98 ft 17 kts 358°
2026-05-04 20:00 68.48626 16.68240 90 ft 18 kts 356°
2026-05-04 20:00 68.48800 16.68223 89 ft 14 kts 358°
2026-05-04 20:00 68.48856 16.68216 86 ft 11 kts 357°
2026-05-04 20:01 68.48935 16.68209 88 ft 13 kts 358°
2026-05-04 20:01 68.49003 16.68217 89 ft 3 kts 37°
2026-05-04 20:01 68.49007 16.68341 89 ft 6 kts 89°
2026-05-04 20:01 68.49008 16.68374 90 ft 1 kts 87°
2026-05-04 20:02 68.49008 16.68386 90 ft 0 kts 87°
2026-05-04 20:02 68.49008 16.68394 90 ft 0 kts 88°